Address 0xaf3d6a4ee567e89aa0fa0770fcc8ab3e65518096

Txn Hash
Block
From
To
Value [Txn Fee]
0xc6067625874c70b0d1ba3fd98bdd97702a6cbaba0d147e1313ea98502fe820d247899392020-12-24 18:48:58170 days 11 hrs ago0xaf3d6a4ee567e89aa0fa0770fcc8ab3e65518096OUT 0xf1aeeaca24f0ac63b1202a8d5eae05d61d9355160 BNB0.0004474
0x62c1751f075661c3dc745ef8bb010f3a67aca51e1bdbd539adc1f64cf021564447894042020-12-24 18:22:13170 days 12 hrs ago0xaf3d6a4ee567e89aa0fa0770fcc8ab3e65518096OUT 0x58f24a413f6fb98f217600703c7086ea22b49c470.1 BNB0.000863255
0xee73ced485b55a0a7c1d0394a030c5e81075a6daabf824423e0eef01dd6e7c1147727282020-12-24 4:28:25171 days 1 hr ago0xaf3d6a4ee567e89aa0fa0770fcc8ab3e65518096OUT 0xb24c9a3bb23fbf2ee1bce85050094270c91a4c890 BNB0.00047436
0x13b0c7141e742684f07b7a1a7946ca8c613c52f353377941b2fc24b48f9c59a447718772020-12-24 3:45:52171 days 2 hrs ago0xaf3d6a4ee567e89aa0fa0770fcc8ab3e65518096OUT 0xf1aeeaca24f0ac63b1202a8d5eae05d61d9355160 BNB0.00108748
0xe2de01c91843b4d852c5e2459ad899c4a00ee1c5e8c2f70a0cad6efe78ffbffc47718492020-12-24 3:44:28171 days 2 hrs ago0xaf3d6a4ee567e89aa0fa0770fcc8ab3e65518096OUT 0xf1aeeaca24f0ac63b1202a8d5eae05d61d9355160 BNB0.00098682
0x3ee91c9c67db1709f6ef60b4dbea41c5c6f74bfc68533b89abaf76c1ef46c8bd47717852020-12-24 3:41:16171 days 2 hrs ago0xaf3d6a4ee567e89aa0fa0770fcc8ab3e65518096OUT Contract Creation0 BNB0.01308488
0x0cc7a7031cc1d020b8e63661b92a44f9bc8b9aa76e4abfaca4cf1e7b3f06b2da47710352020-12-24 3:03:46171 days 3 hrs ago0xaf3d6a4ee567e89aa0fa0770fcc8ab3e65518096OUT 0x30c42a5f0099f67c6d9036a61fed44c823b7cc831 BNB0.004210605
0xbeadeae47999018c5858314fa46e5da90e30a19dd2fef5f83208d65f30fec04747710192020-12-24 3:02:58171 days 3 hrs ago0xaf3d6a4ee567e89aa0fa0770fcc8ab3e65518096OUT 0x8a276c22b26dfbd9a5c64baf2a9c9cad26e25d600 BNB0.00078748
0x2409996ce39afb7432a5531a9c29bcba46fdfbfe8c468c4466e4a9796129c01447710042020-12-24 3:02:13171 days 3 hrs ago0xaf3d6a4ee567e89aa0fa0770fcc8ab3e65518096OUT 0x8a276c22b26dfbd9a5c64baf2a9c9cad26e25d600 BNB0.00108748
0x3a3ca43d56c0ff15d231f3919175a22304161831ef25f3413a26823fe0904b5747709602020-12-24 3:00:01171 days 3 hrs ago0xaf3d6a4ee567e89aa0fa0770fcc8ab3e65518096OUT Contract Creation0 BNB0.01308512
0x677ef47eed56935caa73a2f424450e2dca91b6e302102e47b85da4d54b096ec647709002020-12-24 2:57:01171 days 3 hrs ago0xaf3d6a4ee567e89aa0fa0770fcc8ab3e65518096OUT 0xe3dd6ca44b7c5427461a2383f6449d4dfcca80720 BNB0.00078748
0x6ba852d8d149f61a0f4b022e13c436dd71fc67fa423423e0bf711b369a0c2aff47708492020-12-24 2:54:28171 days 3 hrs ago0xaf3d6a4ee567e89aa0fa0770fcc8ab3e65518096OUT 0x515b28e7638ac923f0db63298658167a4e4db7702.276377 BNB0.002352
0x02ed2b5981e0945792e093ce384dde8d99b0eec6cedaf9ec93afb9d7d8f905d847707872020-12-24 2:51:22171 days 3 hrs ago0xaf3d6a4ee567e89aa0fa0770fcc8ab3e65518096OUT 0x30c42a5f0099f67c6d9036a61fed44c823b7cc832.276929333 BNB0.003457384
0x70ada4285fc894d4cc5049e31206701f41be4a1488e34dbb9807201ea3c3760047707252020-12-24 2:48:16171 days 3 hrs ago0xaf3d6a4ee567e89aa0fa0770fcc8ab3e65518096OUT 0xe3dd6ca44b7c5427461a2383f6449d4dfcca80720 BNB0.00078748
0x34ee914ecf9f6ef8e37579150b75d54055eae8cdb7b0bca0a7990384cf5cf19247706992020-12-24 2:46:58171 days 3 hrs ago0xaf3d6a4ee567e89aa0fa0770fcc8ab3e65518096OUT 0xe3dd6ca44b7c5427461a2383f6449d4dfcca80720 BNB0.00108748
0x871a496d96fededfb9fd83a50228a6d6e953f6ecd97db40b8249feafa2fbf74b47706452020-12-24 2:44:16171 days 3 hrs ago0xaf3d6a4ee567e89aa0fa0770fcc8ab3e65518096OUT Contract Creation0 BNB0.01308488
0x3467a0b0635881900e1cabb2f7af2c811986e0e4cab100b1b5d705b1de534f9647705612020-12-24 2:40:04171 days 3 hrs ago0xaf3d6a4ee567e89aa0fa0770fcc8ab3e65518096OUT 0x109add00a3d35f0acb43d6b1a4e57450108367ab0 BNB0.00108748
0xb2e627620d72c30d54b9e7b777241c3fc9929c138081f0262f55695d144f909747704992020-12-24 2:36:58171 days 3 hrs ago0xaf3d6a4ee567e89aa0fa0770fcc8ab3e65518096OUT Contract Creation0 BNB0.01308488
0xc4923ff07e4ad554dbe0f0a9a9bd068d563479ae9e2f6f9f9621fb0ddf73b4ba47698892020-12-24 2:06:28171 days 4 hrs ago0xaf3d6a4ee567e89aa0fa0770fcc8ab3e65518096OUT 0xb24c9a3bb23fbf2ee1bce85050094270c91a4c890 BNB0.00047436
0x903ffa5e783fa5912ec1bbcdbbebb45349238c29b1e827e537f163d9390702dc47670432020-12-23 23:44:10171 days 6 hrs ago0xaf3d6a4ee567e89aa0fa0770fcc8ab3e65518096OUT 0xb24c9a3bb23fbf2ee1bce85050094270c91a4c890 BNB0.0004474
0x347bc21bc1689e816b3c516b4442848308a68c0d17344f11a466b291389a31cc47669502020-12-23 23:39:31171 days 6 hrs ago0xaf3d6a4ee567e89aa0fa0770fcc8ab3e65518096OUT 0xb24c9a3bb23fbf2ee1bce85050094270c91a4c890 BNB0.00098682
0x1a14d90d62c5f33185c44b3be26317217931a92363cd5a2a8eaa2877dc15949147661122020-12-23 22:57:37171 days 7 hrs ago0xaf3d6a4ee567e89aa0fa0770fcc8ab3e65518096OUT 0x30c42a5f0099f67c6d9036a61fed44c823b7cc832 BNB0.008220705
0x8b1ae76339a1c83f1619a5b487ae45edee3b157762973c2d7b0de287b6449d1f47203252020-12-22 8:48:15172 days 21 hrs ago0xaf3d6a4ee567e89aa0fa0770fcc8ab3e65518096OUT Contract Creation0 BNB0.01308512
0xb2072292514b764e8c791257f373a359dfe07cd153e1f4ccb51fb4d99c89597846808062020-12-20 23:52:16174 days 6 hrs ago0xaf3d6a4ee567e89aa0fa0770fcc8ab3e65518096OUT Contract Creation0 BNB0.00977428
0x0529f3d10acbcb2d3c8e2e31b162fbfd2c2a2f1b2853733035928d4f59d9ed3746806722020-12-20 23:45:34174 days 6 hrs ago0xaf3d6a4ee567e89aa0fa0770fcc8ab3e65518096OUT Contract Creation0 BNB0.01308512
[ Download CSV Export 
Latest 1 internal transaction
Parent Txn Hash Block From To Value
0x7386cdfbd266171abe9a55d587240c4ec58f06fce9f55f9c82a0e019b66d4ec847894262020-12-24 18:23:19170 days 12 hrs ago 0x58f24a413f6fb98f217600703c7086ea22b49c470xaf3d6a4ee567e89aa0fa0770fcc8ab3e655180960.1 BNB
[ Download CSV Export 
Loading

Contract Name:
0 BNB

Compiler Version
0

Optimization Enabled:
0 BNB

Other Settings:
-NA-
Block Transaction Gas Used Reward
Age Block Fee Address BC Fee Address Voting Power Jailed Incoming
Block Uncle Number Difficulty Gas Used Reward
Loading